Location: Kaltenbach
(49.2000°N, 7.7500°E)
Time: 09:14:59
(UTC+00:00)

Cosmos 1825 Rocket - Pass Details

Date: 24 January 2020
Orbit: 604 x 631 km, 82.5° (Epoch: 16 February)

Event Time Altitude Azimuth Distance (km) Brightness Sun altitude
Rises 16:59:18 0° 167° (SSE) 2,865 7.1 -7.9°
Reaches altitude 10° 17:01:38 10° 159° (SSE) 1,961 6.1 -8.3°
Maximum altitude 17:05:38 38° 92° (E) 941 4.0 -8.9°
Drops below altitude 10° 17:09:39 10° 24° (NNE) 1,966 5.7 -9.5°
Sets 17:11:58 0° 17° (NNE) 2,873 6.6 -9.9°
